Torrington, WY

11:55 AM MDT on August 19, 2017 (GMT -0600)
Torrington Municipal

Weather History for KTOR - October, 2011

Change the Weather History Date:

Sunday, October 9, 2011

  Actual Average Record
Temperature  
Mean Temperature 44 °F 51 °F  
Max Temperature 48 °F 66 °F 90 °F (2003)
Min Temperature 39 °F 36 °F 18 °F (2009)
Degree Days  
Heating Degree Days 21 14  
Month to date heating degree days 67 114  
Since 1 July heating degree days 187 308  
Cooling Degree Days 0 0  
Month to date cooling degree days 5 0  
Year to date cooling degree days 843 678  
Moisture  
Dew Point 39 °F    
Average Humidity 89    
Maximum Humidity 96    
Minimum Humidity 82    
Precipitation  
Precipitation 0.10 in 0.04 in 0.48 in (2001)
Month to date precipitation 1.55 0.34  
Year to date precipitation 16.02 12.67  
Sea Level Pressure  
Sea Level Pressure 30.14 in    
Wind  
Wind Speed 8 mph (NW)    
Max Wind Speed 17 mph    
Max Gust Speed 22 mph    
Visibility 9 miles    
Events Rain    
T = Trace of Precipitation, MM = Missing Value Source: NWS Daily Summary

Daily Weather History Graph

Daily Weather History Graph

Search for Another Location

Airport or City:

Trip Planner

Search our weather history database for the weather conditions in past years. The results will help you decide how hot, cold, wet, or windy it might be!

Date:

Astronomy

Oct. 09, 2011 Rise Set
Actual Time 7:02 AM MDT 6:24 PM MDT
Civil Twilight 6:34 AM MDT 6:52 PM MDT
Nautical Twilight 6:01 AM MDT 7:25 PM MDT
Astronomical Twilight 5:29 AM MDT 7:57 PM MDT
Moon 5:04 PM MDT (10/9) 4:47 AM MDT (10/9)
Length of Visible Light 12h 18m
Length of Day
11h 22m
Waxing Gibbous, 95% of the Moon is Illuminated
Oct 9
Waxing Gibbous
Oct 11
Full
Oct 19
Last Quarter
Oct 26
New
Nov 2
First Quarter

Hourly Weather History & Observations

Time (MDT) Temp. Windchill Dew Point Humidity Pressure Visibility Wind Dir Wind Speed Gust Speed Precip Events Conditions
12:23 AM 41.0 °F 33.1 °F 37.4 °F 87% 30.18 in 5.0 mi NW 15.0 mph 21.9 mph 0.02 in Rain Light Rain
12:53 AM 41.0 °F 33.5 °F 37.9 °F 89% 30.19 in 10.0 mi NW 13.8 mph 20.7 mph 0.03 in   Overcast
1:53 AM 41.0 °F 33.5 °F 37.9 °F 89% 30.19 in 10.0 mi NW 13.8 mph - 0.00 in Rain Light Rain
2:53 AM 41.0 °F 34.3 °F 39.0 °F 93% 30.20 in 5.0 mi NW 11.5 mph - 0.02 in Rain Light Rain
3:20 AM 39.2 °F 31.6 °F 37.4 °F 93% 30.18 in 8.0 mi NW 12.7 mph 20.7 mph 0.01 in Rain Light Rain
3:38 AM 39.2 °F 32.5 °F 37.4 °F 93% 30.18 in 7.0 mi NW 10.4 mph - 0.02 in Rain Light Rain
3:53 AM 39.9 °F 32.1 °F 37.9 °F 93% 30.20 in 8.0 mi NW 13.8 mph - 0.02 in Rain Light Rain
4:29 AM 39.2 °F 31.2 °F 37.4 °F 93% 30.18 in 10.0 mi NW 13.8 mph - 0.03 in Rain Light Rain
4:53 AM 39.9 °F 32.1 °F 37.9 °F 93% 30.21 in 10.0 mi NW 13.8 mph - 0.04 in Rain Light Rain
5:53 AM 39.0 °F 31.8 °F 37.0 °F 93% 30.21 in 10.0 mi NW 11.5 mph - 0.00 in   Overcast
6:53 AM 39.0 °F 32.8 °F 37.0 °F 93% 30.21 in 8.0 mi NW 9.2 mph - 0.01 in Rain Light Rain
7:26 AM 39.2 °F 33.0 °F 37.4 °F 93% 30.16 in 10.0 mi NW 9.2 mph - 0.00 in   Overcast
7:37 AM 39.2 °F 33.0 °F 37.4 °F 93% 30.17 in 10.0 mi NW 9.2 mph - 0.00 in   Overcast
7:53 AM 39.9 °F 33.4 °F 37.9 °F 93% 30.19 in 10.0 mi NW 10.4 mph - 0.00 in   Overcast
8:53 AM 41.0 °F 35.2 °F 39.0 °F 93% 30.19 in 10.0 mi NW 9.2 mph - N/A   Overcast
9:53 AM 41.0 °F 35.2 °F 39.0 °F 93% 30.18 in 10.0 mi NW 9.2 mph - N/A   Overcast
10:21 AM 41.0 °F 35.2 °F 39.2 °F 93% 30.16 in 6.0 mi NW 9.2 mph - N/A   Overcast
10:32 AM 41.0 °F 37.1 °F 39.2 °F 93% 30.16 in 5.0 mi NW 5.8 mph - N/A   Overcast
10:53 AM 42.1 °F 36.6 °F 39.0 °F 89% 30.18 in 4.0 mi NW 9.2 mph - N/A   Overcast
11:35 AM 42.8 °F 38.0 °F 39.2 °F 87% 30.15 in 3.0 mi NW 8.1 mph - 0.00 in Rain Light Rain
11:53 AM 42.1 °F 36.6 °F 39.9 °F 92% 30.16 in 4.0 mi NW 9.2 mph - 0.00 in   Overcast
12:23 PM 42.8 °F 37.5 °F 39.2 °F 87% 30.13 in 9.0 mi NW 9.2 mph - 0.01 in   Overcast
12:30 PM 42.8 °F 37.5 °F 41.0 °F 93% 30.13 in 8.0 mi NW 9.2 mph - 0.01 in   Overcast
1:33 PM 42.8 °F 39.3 °F 41.0 °F 93% 30.10 in 10.0 mi NW 5.8 mph - N/A   Overcast
1:53 PM 43.0 °F 37.7 °F 39.9 °F 89% 30.11 in 10.0 mi NW 9.2 mph - N/A   Overcast
2:53 PM 43.0 °F 38.2 °F 39.9 °F 89% 30.09 in 10.0 mi NNW 8.1 mph - N/A   Overcast
3:44 PM 44.6 °F 40.7 °F 39.2 °F 81% 30.07 in 10.0 mi NNW 6.9 mph - 0.00 in Rain Light Rain
3:53 PM 44.1 °F 40.1 °F 39.9 °F 85% 30.08 in 10.0 mi NW 6.9 mph - 0.00 in   Overcast
4:53 PM 46.9 °F - 41.0 °F 80% 30.05 in 10.0 mi NNE 5.8 mph - N/A   Mostly Cloudy
5:53 PM 45.0 °F - 39.9 °F 82% 30.06 in 10.0 mi Calm Calm - N/A   Overcast
6:53 PM 44.1 °F - 41.0 °F 89% 30.05 in 10.0 mi Calm Calm - N/A   Overcast
7:53 PM 43.0 °F 41.3 °F 41.0 °F 93% 30.05 in 10.0 mi South 3.5 mph - N/A   Overcast
8:53 PM 43.0 °F 41.3 °F 41.0 °F 93% 30.04 in 10.0 mi SSE 3.5 mph - N/A   Overcast
9:53 PM 42.1 °F 38.4 °F 39.9 °F 92% 30.03 in 10.0 mi SE 5.8 mph - N/A   Overcast
11:53 PM 41.0 °F 36.4 °F 39.0 °F 93% 30.00 in 10.0 mi SE 6.9 mph - N/A   Scattered Clouds